Location: Cañada de la Miga
(34.7595°N, 106.2317°W)
Time: 03:25:30
(UTC+00:00)

Tiangong - Visible Passes

Search period start: 21 October 2021 00:00
Search period end: 31 October 2021 00:00
Orbit: 382 x 384 km, 41.5° (Epoch: 20 October)

Date Brightness Start Highest point End Pass type
(mag) Time Alt. Az. Time Alt. Az. Time Alt. Az.
21 Oct 2.2 01:10:04 10° W 01:13:02 37° NNW 01:15:26 14° NE visible
22 Oct 2.7 01:47:20 10° WNW 01:49:58 24° N 01:50:17 23° N visible
23 Oct 2.6 00:46:50 10° WNW 00:49:38 28° N 00:52:25 10° NE visible
23 Oct 3.9 02:24:18 10° NW 02:25:06 15° NW 02:25:06 15° NW visible
24 Oct 2.8 01:23:58 10° NW 01:26:35 23° N 01:27:42 19° NNE visible
25 Oct 3.0 02:00:40 10° NW 02:02:29 24° NNW 02:02:29 24° NNW visible
26 Oct 2.6 01:00:24 10° NW 01:03:04 24° N 01:05:07 14° ENE visible
26 Oct 4.5 02:37:04 10° WNW 02:37:17 11° WNW 02:37:17 11° WNW visible
27 Oct 1.7 01:36:52 10° NW 01:39:52 40° NNE 01:39:57 40° NNE visible
28 Oct 3.2 02:13:16 10° WNW 02:14:51 26° WNW 02:14:51 26° WNW visible
29 Oct 1.1 01:12:58 10° WNW 01:16:06 64° NNE 01:17:39 26° E visible
30 Oct 2.3 01:49:32 10° W 01:52:28 35° SSW 01:52:46 34° SSW visible
